CW8428 Weather Reports


Display with metric or nautical units.
time (UTC)temp
F
wind
direction
speed
MPH
gust
MPH
rain 1hr
in
rain 24hr
in
rain mn
in
humidity
%
barometer
mb
20260905165627 78 180 11.0 20.0 0.00 0.00 0.00 17 1018.7
20260905164622 78 167 12.0 20.0 0.00 0.00 0.00 16 1018.6
20260905163613 78 175 10.0 19.0 0.00 0.00 0.00 17 1018.7
20260905162625 78 187 9.0 24.0 0.00 0.00 0.00 17 1018.7
20260905161615 78 158 13.0 17.0 0.00 0.00 0.00 16 1018.5
20260905160630 77 191 9.0 15.0 0.00 0.00 0.00 20 1018.4
20260905155612 77 142 10.0 16.0 0.00 0.00 0.00 22 1018.4
20260905154623 76 134 9.0 12.0 0.00 0.00 0.00 23 1018.3
20260905153635 75 101 6.0 13.0 0.00 0.00 0.00 25 1018.3
20260905152629 73 113 3.0 7.0 0.00 0.00 0.00 28 1018.2
20260905151620 71 108 2.0 5.0 0.00 0.00 0.00 31 1018.3
20260905150631 69 22 4.0 10.0 0.00 0.00 0.00 34 1018.4
20260905145614 68 99 6.0 8.0 0.00 0.00 0.00 36 1018.4
20260905144629 67 138 3.0 4.0 0.00 0.00 0.00 36 1018.4
20260905143621 66 70 0.0 5.0 0.00 0.00 0.00 37 1018.3
20260905142612 64 24 2.0 5.0 0.00 0.00 0.00 39 1018.2
20260905141627 63 120 2.0 5.0 0.00 0.00 0.00 42 1018.3
20260905105631 71 129 3.0 7.0 0.00 0.00 0.00 27 1016.9
20260905104623 71 121 4.0 8.0 0.00 0.00 0.00 27 1016.8
20260905103612 73 142 6.0 13.0 0.00 0.00 0.00 26 1016.8
20260905102643 74 142 2.0 11.0 0.00 0.00 0.00 25 1016.7
20260905101613 74 112 8.0 13.0 0.00 0.00 0.00 25 1016.7
20260905100628 73 94 4.0 8.0 0.00 0.00 0.00 26 1016.5
20260905095631 72 109 5.0 7.0 0.00 0.00 0.00 27 1016.6
20260905094622 72 130 3.0 7.0 0.00 0.00 0.00 28 1016.6
20260905093634 73 141 2.0 9.0 0.00 0.00 0.00 28 1016.5
20260905092628 72 134 3.0 7.0 0.00 0.00 0.00 28 1016.4
20260905091619 72 94 7.0 10.0 0.00 0.00 0.00 29 1016.3
20260905090630 73 133 4.0 11.0 0.00 0.00 0.00 29 1016.2
20260905085633 73 118 5.0 9.0 0.00 0.00 0.00 29 1016.0
20260905084648 74 108 5.0 10.0 0.00 0.00 0.00 28 1016.0
20260905083618 74 112 4.0 11.0 0.00 0.00 0.00 28 1016.0
20260905082628 74 117 6.0 9.0 0.00 0.00 0.00 29 1015.9
20260905081619 74 110 5.0 9.0 0.00 0.00 0.00 29 1015.8
20260905080614 74 101 5.0 8.0 0.00 0.00 0.00 29 1015.8
20260905075617 74 107 4.0 7.0 0.00 0.00 0.00 29 1015.8
20260905074628 74 108 3.0 8.0 0.00 0.00 0.00 29 1015.7
20260905073618 74 123 3.0 8.0 0.00 0.00 0.00 29 1015.5
20260905072614 74 117 5.0 7.0 0.00 0.00 0.00 29 1015.4
20260905071626 74 114 4.0 8.0 0.00 0.00 0.00 30 1015.3
20260905070617 75 110 4.0 6.0 0.00 0.00 0.00 28 1015.1
20260905065640 75 110 3.0 6.0 0.00 0.00 0.00 28 1015.0
20260905064615 75 134 4.0 5.0 0.00 0.00 0.00 28 1014.9
20260905063626 75 134 2.0 11.0 0.00 0.00 0.00 28 1014.8
20260905062616 75 127 5.0 11.0 0.00 0.00 0.00 27 1014.7
20260905061627 75 93 4.0 9.0 0.00 0.00 0.00 27 1014.6
20260905060650 75 126 3.0 8.0 0.00 0.00 0.00 27 1014.5
20260905055618 75 121 4.0 7.0 0.00 0.00 0.00 27 1014.4
20260905054629 76 138 3.0 7.0 0.00 0.00 0.00 27 1014.3
20260905053620 76 133 3.0 8.0 0.00 0.00 0.00 26 1014.3
20260905052615 76 134 4.0 5.0 0.00 0.00 0.00 25 1014.2
20260905051627 76 142 3.0 7.0 0.00 0.00 0.00 26 1014.1
20260905050616 76 155 1.0 6.0 0.00 0.00 0.00 26 1014.1
20260905045617 76 163 5.0 12.0 0.00 0.00 0.00 26 1014.0
20260905044613 75 122 3.0 5.0 0.00 0.00 0.00 28 1014.2
20260905043623 74 115 5.0 7.0 0.00 0.00 0.00 28 1014.1
20260905042614 73 136 3.0 5.0 0.00 0.00 0.00 31 1014.0
20260905041642 72 134 4.0 7.0 0.00 0.00 0.00 31 1013.9
20260905040615 72 112 1.0 6.0 0.00 0.00 0.00 33 1013.9
20260905035618 72 112 4.0 6.0 0.00 0.00 0.00 33 1013.8
20260905034627 73 173 3.0 5.0 0.00 0.00 0.00 34 1013.8
20260905033615 73 142 3.0 7.0 0.00 0.00 0.00 31 1013.8
20260905032625 75 140 2.0 4.0 0.00 0.00 0.00 31 1013.6
20260905031619 76 140 0.0 3.0 0.00 0.00 0.00 27 1013.5
20260905030630 77 140 1.0 3.0 0.00 0.00 0.00 27 1013.4
20260905025612 77 140 1.0 3.0 0.00 0.00 0.00 26 1013.2
20260905024620 78 141 3.0 5.0 0.00 0.00 0.00 27 1013.2
20260905023613 78 27 0.0 3.0 0.00 0.00 0.00 25 1013.0
20260905022625 79 27 2.0 6.0 0.00 0.00 0.00 24 1012.8
20260905021615 79 309 2.0 5.0 0.00 0.00 0.00 24 1012.7
20260905020629 80 5 4.0 5.0 0.00 0.00 0.00 23 1012.6
20260905015632 80 172 3.0 6.0 0.00 0.00 0.00 23 1012.6
20260905014623 81 180 1.0 5.0 0.00 0.00 0.00 22 1012.5
20260905013613 82 200 1.0 5.0 0.00 0.00 0.00 22 1012.5
20260905012628 82 192 3.0 7.0 0.00 0.00 0.00 20 1012.4
20260905011618 83 173 4.0 7.0 0.00 0.00 0.00 19 1012.4
20260905010627 84 169 5.0 12.0 0.00 0.00 0.00 19 1012.5
20260905005628 84 166 9.0 16.0 0.00 0.00 0.00 17 1012.4
20260905004622 84 167 4.0 15.0 0.00 0.00 0.00 17 1012.6
20260905003612 84 163 11.0 19.0 0.00 0.00 0.00 17 1012.5
20260905002621 85 132 9.0 17.0 0.00 0.00 0.00 17 1012.6
20260905001630 85 191 12.0 17.0 0.00 0.00 0.00 17 1012.5
20260905000626 85 169 10.0 18.0 0.00 0.00 0.00 16 1012.5
20260904235629 85 209 11.0 20.0 0.00 0.00 0.00 17 1012.6
20260904234619 85 151 10.0 19.0 0.00 0.00 0.00 16 1012.6
20260904233629 85 174 13.0 20.0 0.00 0.00 0.00 17 1012.6
20260904232622 85 142 11.0 20.0 0.00 0.00 0.00 16 1012.6